Вернуться в каталог

STARLINK-11588

АктивенСвязьVLEO
NORAD 63319·PAYLOAD·🇺🇸 United States

Запущен Mar 18, 2025 с Cape Canaveral Space Force Station

Loading…

Ближайшие Пролёты (ближайшие 24 часа)

TLE

СвежийSource: CelesTrak SupGP

Эпоха: Sep 15, 2026, 02:24 UTC

1 63319C 25057N   26258.10048611 -.00042258  00000+0 -32825-3 0  2588
2 63319  43.0003 202.7152 0001515 267.5867 257.4160 15.70857469    14

Отслеживайте STARLINK-11588 в реальном времени с AllMySat

Download on the App Store